ELY5137 LLBG-LCPH

Flight info

Callsign ELY5137
Flight time 0h 46m
Altitude 26000
Route SUVAS DCT AFONO DCT APLON M32 ESERI
Aircraft B738/M-SDGIJ1LRWY/SB1

Departure

Time 2026-04-22 06:15
Airport Ben Gurion International Airport (LLBG)

Arrival

Time 2026-04-22 07:01
Airport Paphos International Airport (LCPH)
Time Latitude Longitude Altitude Speed Heading
2026-04-22 05:47 32.00177 34.87329 135 ft 0 kts 53°
2026-04-22 05:57 32.00170 34.87318 134 ft 2 kts 53°
2026-04-22 05:58 32.00161 34.87304 134 ft 2 kts 53°
2026-04-22 05:58 32.00152 34.87290 134 ft 2 kts 53°
2026-04-22 05:58 32.00140 34.87278 134 ft 2 kts 15°
2026-04-22 05:58 32.00126 34.87277 134 ft 2 kts 341°
2026-04-22 05:59 32.00113 34.87286 134 ft 2 kts 328°
2026-04-22 05:59 32.00100 34.87294 134 ft 2 kts 333°
2026-04-22 05:59 32.00086 34.87303 134 ft 2 kts 331°
2026-04-22 05:59 32.00074 34.87310 134 ft 0 kts 332°
2026-04-22 06:00 32.00062 34.87317 134 ft 2 kts 342°
2026-04-22 06:00 32.00049 34.87322 134 ft 0 kts 336°
2026-04-22 06:00 32.00038 34.87331 134 ft 2 kts 307°
2026-04-22 06:00 32.00031 34.87346 134 ft 2 kts 297°
2026-04-22 06:01 32.00023 34.87362 134 ft 2 kts 302°
2026-04-22 06:01 32.00017 34.87373 134 ft 2 kts 291°
2026-04-22 06:01 32.00013 34.87390 134 ft 2 kts 290°
2026-04-22 06:01 32.00007 34.87407 134 ft 2 kts 291°
2026-04-22 06:02 32.00002 34.87423 134 ft 1 kts 290°
2026-04-22 06:02 31.99997 34.87435 134 ft 2 kts 305°
2026-04-22 06:02 31.99989 34.87449 134 ft 2 kts 297°
2026-04-22 06:02 31.99985 34.87466 134 ft 2 kts 268°
2026-04-22 06:03 31.99988 34.87484 135 ft 2 kts 243°
2026-04-22 06:03 31.99997 34.87497 135 ft 1 kts 220°
2026-04-22 06:03 32.00010 34.87505 135 ft 2 kts 209°
2026-04-22 06:03 32.00022 34.87514 135 ft 2 kts 212°
2026-04-22 06:04 32.00031 34.87521 135 ft 0 kts 211°
2026-04-22 06:06 32.00011 34.87507 135 ft 6 kts 210°
2026-04-22 06:06 31.99972 34.87499 135 ft 5 kts 162°
2026-04-22 06:06 31.99953 34.87532 136 ft 4 kts 103°
2026-04-22 06:07 31.99963 34.87568 135 ft 6 kts 44°
2026-04-22 06:07 32.00013 34.87608 136 ft 10 kts 32°
2026-04-22 06:07 32.00103 34.87671 136 ft 19 kts 31°
2026-04-22 06:07 32.00241 34.87770 136 ft 27 kts 32°
2026-04-22 06:08 32.00412 34.87892 136 ft 25 kts 31°
2026-04-22 06:08 32.00498 34.87951 136 ft 7 kts 21°
2026-04-22 06:08 32.00545 34.87938 136 ft 6 kts 323°
2026-04-22 06:08 32.00585 34.87922 136 ft 6 kts 17°
2026-04-22 06:09 32.00639 34.87956 136 ft 12 kts 32°
2026-04-22 06:09 32.00750 34.88036 136 ft 24 kts 31°
2026-04-22 06:09 32.00918 34.88156 136 ft 29 kts 31°
2026-04-22 06:09 32.01088 34.88277 136 ft 28 kts 32°
2026-04-22 06:10 32.01247 34.88394 136 ft 25 kts 34°
2026-04-22 06:10 32.01367 34.88526 136 ft 22 kts 51°
2026-04-22 06:10 32.01450 34.88676 136 ft 21 kts 63°
2026-04-22 06:10 32.01496 34.88838 136 ft 20 kts 80°
2026-04-22 06:11 32.01520 34.88999 136 ft 19 kts 80°
2026-04-22 06:11 32.01541 34.89134 136 ft 8 kts 76°
2026-04-22 06:11 32.01582 34.89163 136 ft 7 kts 355°
2026-04-22 06:11 32.01629 34.89154 136 ft 6 kts 350°
2026-04-22 06:12 32.01671 34.89146 136 ft 5 kts 350°
2026-04-22 06:12 32.01707 34.89138 136 ft 4 kts 350°
2026-04-22 06:12 32.01739 34.89131 136 ft 3 kts 345°
2026-04-22 06:12 32.01747 34.89111 136 ft 2 kts 265°
2026-04-22 06:13 32.01746 34.89100 136 ft 0 kts 260°
2026-04-22 06:14 32.01746 34.89099 136 ft 1 kts 260°
2026-04-22 06:14 32.01720 34.88924 136 ft 52 kts 260°
2026-04-22 06:14 32.01620 34.88271 136 ft 108 kts 259°
2026-04-22 06:14 32.01456 34.87202 136 ft 154 kts 261°
2026-04-22 06:15 32.01243 34.85854 372 ft 170 kts 259°
2026-04-22 06:15 32.00987 34.84515 924 ft 170 kts 257°
2026-04-22 06:15 32.00682 34.83131 1285 ft 183 kts 257°
2026-04-22 06:15 32.00380 34.81662 1781 ft 186 kts 258°
2026-04-22 06:16 32.00082 34.80178 2284 ft 189 kts 258°
2026-04-22 06:16 31.99774 34.78674 2803 ft 191 kts 257°
2026-04-22 06:16 31.99462 34.77162 3307 ft 193 kts 258°
2026-04-22 06:16 31.99171 34.75586 3713 ft 201 kts 264°
2026-04-22 06:17 31.99297 34.73909 3991 ft 215 kts 291°
2026-04-22 06:17 31.99805 34.72211 4380 ft 227 kts 289°
2026-04-22 06:17 32.00232 34.70363 4706 ft 244 kts 285°
2026-04-22 06:17 32.00656 34.68361 5141 ft 257 kts 285°
2026-04-22 06:18 32.01120 34.66280 5560 ft 269 kts 286°
2026-04-22 06:18 32.01622 34.64140 6187 ft 274 kts 286°
2026-04-22 06:18 32.02133 34.62001 6856 ft 276 kts 286°
2026-04-22 06:18 32.02654 34.59829 7577 ft 277 kts 286°
2026-04-22 06:19 32.03175 34.57649 8292 ft 279 kts 286°
2026-04-22 06:19 32.03707 34.55423 9040 ft 281 kts 286°
2026-04-22 06:19 32.04228 34.53236 9747 ft 283 kts 286°
2026-04-22 06:19 32.04755 34.51018 10442 ft 286 kts 286°
2026-04-22 06:20 32.05310 34.48687 10835 ft 302 kts 286°
2026-04-22 06:20 32.05891 34.46241 11237 ft 317 kts 286°
2026-04-22 06:20 32.06493 34.43709 11617 ft 331 kts 286°
2026-04-22 06:20 32.07125 34.41046 11987 ft 346 kts 286°
2026-04-22 06:21 32.07787 34.38249 12337 ft 361 kts 286°
2026-04-22 06:21 32.08464 34.35383 12890 ft 369 kts 286°
2026-04-22 06:21 32.09158 34.32443 13604 ft 372 kts 285°
2026-04-22 06:21 32.09850 34.29504 14287 ft 377 kts 285°
2026-04-22 06:22 32.10550 34.26535 15043 ft 379 kts 285°
2026-04-22 06:22 32.11261 34.23514 15782 ft 383 kts 285°
2026-04-22 06:22 32.11971 34.20495 16488 ft 386 kts 285°
2026-04-22 06:22 32.12685 34.17452 17129 ft 391 kts 285°
2026-04-22 06:23 32.13410 34.14360 17880 ft 392 kts 285°
2026-04-22 06:23 32.14137 34.11259 18480 ft 397 kts 285°
2026-04-22 06:23 32.14877 34.08096 19153 ft 400 kts 285°
2026-04-22 06:23 32.15620 34.04943 19792 ft 403 kts 285°
2026-04-22 06:24 32.17598 33.98729 20994 ft 410 kts 296°
2026-04-22 06:24 32.19001 33.95796 21572 ft 414 kts 300°
2026-04-22 06:24 32.20573 33.92943 22093 ft 419 kts 303°
2026-04-22 06:25 32.22232 33.90140 22659 ft 422 kts 304°
2026-04-22 06:25 32.23964 33.87307 23205 ft 425 kts 304°
2026-04-22 06:25 32.25700 33.84494 23752 ft 428 kts 304°
2026-04-22 06:25 32.27457 33.81643 24297 ft 430 kts 304°
2026-04-22 06:26 32.29206 33.78791 24878 ft 432 kts 304°
2026-04-22 06:26 32.30964 33.75907 25411 ft 434 kts 304°
2026-04-22 06:26 32.32729 33.72996 25907 ft 436 kts 303°
2026-04-22 06:26 32.34493 33.70074 26029 ft 438 kts 303°
2026-04-22 06:27 32.36237 33.67177 26035 ft 433 kts 303°
2026-04-22 06:27 32.37978 33.64278 26035 ft 433 kts 303°
2026-04-22 06:27 32.39724 33.61364 26036 ft 433 kts 303°
2026-04-22 06:27 32.41469 33.58444 26036 ft 434 kts 303°
2026-04-22 06:28 32.43201 33.55546 26039 ft 434 kts 303°
2026-04-22 06:28 32.44942 33.52629 26036 ft 433 kts 303°
2026-04-22 06:28 32.46682 33.49712 26036 ft 434 kts 303°
2026-04-22 06:28 32.48430 33.46779 26037 ft 434 kts 303°
2026-04-22 06:29 32.50164 33.43866 26034 ft 434 kts 303°
2026-04-22 06:29 32.51888 33.40969 26034 ft 433 kts 303°
2026-04-22 06:29 32.53627 33.38045 26033 ft 433 kts 303°
2026-04-22 06:29 32.55373 33.35106 26033 ft 433 kts 303°
2026-04-22 06:30 32.57093 33.32211 26032 ft 432 kts 303°
2026-04-22 06:30 32.58828 33.29287 26037 ft 432 kts 303°
2026-04-22 06:30 32.60548 33.26386 26036 ft 433 kts 303°
2026-04-22 06:30 32.62275 33.23473 26035 ft 432 kts 303°
2026-04-22 06:31 32.63999 33.20559 26041 ft 433 kts 302°
2026-04-22 06:31 32.65740 33.17616 26038 ft 432 kts 303°
2026-04-22 06:31 32.67455 33.14713 26033 ft 433 kts 303°
2026-04-22 06:31 32.69190 33.11774 26039 ft 433 kts 302°
2026-04-22 06:32 32.70916 33.08849 26036 ft 433 kts 302°
2026-04-22 06:32 32.72632 33.05939 26038 ft 433 kts 303°
2026-04-22 06:32 32.74364 33.02999 26038 ft 433 kts 302°
2026-04-22 06:32 32.76076 33.00090 26036 ft 434 kts 302°
2026-04-22 06:33 32.77799 32.97161 26037 ft 434 kts 303°
2026-04-22 06:33 32.79539 32.94201 26034 ft 433 kts 303°
2026-04-22 06:33 32.81241 32.91303 26033 ft 433 kts 303°
2026-04-22 06:33 32.82977 32.88345 26034 ft 433 kts 303°
2026-04-22 06:34 32.84684 32.85434 26033 ft 434 kts 303°
2026-04-22 06:34 32.86419 32.82474 26031 ft 433 kts 303°
2026-04-22 06:34 32.88131 32.79551 26031 ft 433 kts 303°
2026-04-22 06:34 32.89864 32.76590 26030 ft 433 kts 303°
2026-04-22 06:35 32.91573 32.73666 26031 ft 433 kts 302°
2026-04-22 06:35 32.93279 32.70744 26030 ft 433 kts 302°
2026-04-22 06:35 32.94988 32.67815 26032 ft 433 kts 302°
2026-04-22 06:35 32.96714 32.64855 26031 ft 433 kts 302°
2026-04-22 06:36 32.98422 32.61923 26031 ft 433 kts 302°
2026-04-22 06:36 33.00147 32.58960 26029 ft 433 kts 302°
2026-04-22 06:36 33.01856 32.56022 26029 ft 433 kts 302°
2026-04-22 06:36 33.03573 32.53069 26031 ft 433 kts 302°
2026-04-22 06:37 33.05275 32.50139 26029 ft 433 kts 302°
2026-04-22 06:37 33.06980 32.47202 26027 ft 434 kts 302°
2026-04-22 06:37 33.08711 32.44216 26031 ft 434 kts 302°
2026-04-22 06:37 33.10419 32.41270 26033 ft 434 kts 303°
2026-04-22 06:38 33.12138 32.38300 26029 ft 434 kts 303°
2026-04-22 06:38 33.13870 32.35337 26031 ft 434 kts 304°
2026-04-22 06:38 33.15741 32.32526 26034 ft 436 kts 309°
2026-04-22 06:38 33.17986 32.30050 26036 ft 440 kts 320°
2026-04-22 06:39 33.20602 32.28115 26032 ft 444 kts 330°
2026-04-22 06:39 33.23481 32.26687 26036 ft 447 kts 337°
2026-04-22 06:39 33.26448 32.25550 26033 ft 448 kts 340°
2026-04-22 06:39 33.29436 32.24550 26034 ft 448 kts 341°
2026-04-22 06:40 33.32455 32.23606 26035 ft 448 kts 342°
2026-04-22 06:40 33.35468 32.22695 26027 ft 434 kts 342°
2026-04-22 06:40 33.38300 32.21849 26018 ft 416 kts 342°
2026-04-22 06:40 33.41090 32.21012 25773 ft 407 kts 342°
2026-04-22 06:41 33.43813 32.20187 25516 ft 400 kts 342°
2026-04-22 06:41 33.46527 32.19352 25262 ft 400 kts 342°
2026-04-22 06:41 33.49221 32.18514 24960 ft 401 kts 341°
2026-04-22 06:41 33.51911 32.17671 24513 ft 397 kts 342°
2026-04-22 06:42 33.54545 32.16843 23978 ft 395 kts 342°
2026-04-22 06:42 33.57216 32.16002 23415 ft 392 kts 342°
2026-04-22 06:42 33.59820 32.15179 22860 ft 390 kts 342°
2026-04-22 06:42 33.62436 32.14352 22291 ft 389 kts 342°
2026-04-22 06:43 33.65035 32.13530 21730 ft 386 kts 342°
2026-04-22 06:43 33.67627 32.12708 21161 ft 384 kts 342°
2026-04-22 06:43 33.70234 32.11881 20590 ft 382 kts 342°
2026-04-22 06:43 33.72763 32.11078 20032 ft 380 kts 342°
2026-04-22 06:44 33.75327 32.10265 19458 ft 378 kts 342°
2026-04-22 06:44 33.77845 32.09465 18899 ft 376 kts 342°
2026-04-22 06:44 33.80367 32.08665 18348 ft 373 kts 342°
2026-04-22 06:44 33.82867 32.07875 17794 ft 371 kts 343°
2026-04-22 06:45 33.85387 32.07317 17234 ft 370 kts 352°
2026-04-22 06:45 33.87971 32.07474 16681 ft 372 kts
2026-04-22 06:45 33.90425 32.08424 16144 ft 372 kts 19°
2026-04-22 06:45 33.92805 32.09626 15572 ft 370 kts 21°
2026-04-22 06:46 33.95133 32.10867 15018 ft 368 kts 21°
2026-04-22 06:46 33.97475 32.12125 14464 ft 365 kts 21°
2026-04-22 06:46 33.99797 32.13362 13910 ft 363 kts 21°
2026-04-22 06:46 34.02072 32.14560 13369 ft 360 kts 20°
2026-04-22 06:47 34.04364 32.15754 12824 ft 357 kts 20°
2026-04-22 06:47 34.06661 32.16945 12277 ft 355 kts 20°
2026-04-22 06:47 34.08907 32.18106 11736 ft 353 kts 21°
2026-04-22 06:47 34.11161 32.19270 11197 ft 350 kts 21°
2026-04-22 06:48 34.13390 32.20423 10632 ft 342 kts 21°
2026-04-22 06:48 34.15483 32.21510 10357 ft 322 kts 21°
2026-04-22 06:48 34.17489 32.22552 10167 ft 300 kts 21°
2026-04-22 06:48 34.19363 32.23526 9960 ft 288 kts 21°
2026-04-22 06:49 34.21186 32.24468 9525 ft 288 kts 21°
2026-04-22 06:49 34.23037 32.25426 9152 ft 286 kts 21°
2026-04-22 06:49 34.24851 32.26365 8777 ft 285 kts 21°
2026-04-22 06:49 34.26674 32.27312 8410 ft 283 kts 21°
2026-04-22 06:50 34.28488 32.28254 8036 ft 282 kts 21°
2026-04-22 06:50 34.30293 32.29192 7664 ft 281 kts 22°
2026-04-22 06:50 34.32067 32.30114 7298 ft 279 kts 22°
2026-04-22 06:50 34.33851 32.31044 6923 ft 278 kts 22°
2026-04-22 06:51 34.35628 32.31970 6566 ft 276 kts 22°
2026-04-22 06:51 34.37380 32.32881 6204 ft 275 kts 22°
2026-04-22 06:51 34.39144 32.33799 5836 ft 274 kts 22°
2026-04-22 06:51 34.40901 32.34715 5470 ft 273 kts 22°
2026-04-22 06:52 34.42632 32.35616 5109 ft 272 kts 22°
2026-04-22 06:52 34.44368 32.36521 4750 ft 271 kts 22°
2026-04-22 06:52 34.46097 32.37425 4389 ft 270 kts 22°
2026-04-22 06:52 34.47814 32.38322 4039 ft 269 kts 22°
2026-04-22 06:53 34.49510 32.39207 3972 ft 263 kts 22°
2026-04-22 06:53 34.51212 32.40108 3964 ft 267 kts 23°
2026-04-22 06:53 34.52902 32.41020 3829 ft 269 kts 23°
2026-04-22 06:53 34.54575 32.42075 3543 ft 267 kts 34°
2026-04-22 06:54 34.55934 32.43601 3107 ft 272 kts 55°
2026-04-22 06:54 34.56562 32.45713 2959 ft 264 kts 88°
2026-04-22 06:54 34.56364 32.47789 2980 ft 266 kts 99°
2026-04-22 06:54 34.56136 32.50022 2969 ft 264 kts 91°
2026-04-22 06:55 34.56205 32.52250 2974 ft 264 kts 83°
2026-04-22 06:55 34.56514 32.54423 2970 ft 264 kts 76°
2026-04-22 06:55 34.57005 32.56549 2968 ft 258 kts 71°
2026-04-22 06:55 34.57658 32.58530 2972 ft 249 kts 63°
2026-04-22 06:56 34.58497 32.60331 2928 ft 242 kts 56°
2026-04-22 06:56 34.59486 32.62002 2654 ft 238 kts 50°
2026-04-22 06:56 34.60560 32.63476 2399 ft 229 kts 44°
2026-04-22 06:56 34.61719 32.64738 2119 ft 221 kts 37°
2026-04-22 06:57 34.62958 32.65759 2064 ft 205 kts 29°
2026-04-22 06:57 34.64232 32.66413 2073 ft 197 kts
2026-04-22 06:57 34.65565 32.66177 2081 ft 197 kts 331°
2026-04-22 06:57 34.66565 32.65095 2089 ft 189 kts 303°
2026-04-22 06:58 34.67122 32.63686 2076 ft 184 kts 291°
2026-04-22 06:58 34.67580 32.62234 2077 ft 184 kts 291°
2026-04-22 06:58 34.68037 32.60782 1927 ft 179 kts 290°
2026-04-22 06:58 34.68453 32.59429 1685 ft 167 kts 290°
2026-04-22 06:59 34.68853 32.58126 1498 ft 162 kts 290°
2026-04-22 06:59 34.69247 32.56848 1244 ft 159 kts 290°
2026-04-22 06:59 34.69615 32.55648 1083 ft 148 kts 290°
2026-04-22 06:59 34.69971 32.54493 856 ft 146 kts 290°
2026-04-22 07:00 34.70329 32.53324 663 ft 146 kts 290°
2026-04-22 07:00 34.70681 32.52173 469 ft 146 kts 290°
2026-04-22 07:00 34.71032 32.51023 269 ft 144 kts 290°
2026-04-22 07:00 34.71387 32.49884 81 ft 143 kts 290°
2026-04-22 07:01 34.71708 32.48836 42 ft 105 kts 291°
2026-04-22 07:01 34.71880 32.48274 48 ft 51 kts 290°
2026-04-22 07:01 34.71979 32.47976 49 ft 20 kts 296°
2026-04-22 07:01 34.71991 32.47932 48 ft 2 kts 189°
2026-04-22 07:02 34.71972 32.47969 48 ft 11 kts 112°
2026-04-22 07:02 34.71923 32.48129 47 ft 29 kts 110°
2026-04-22 07:02 34.71851 32.48363 47 ft 25 kts 111°
2026-04-22 07:02 34.71820 32.48416 46 ft 5 kts 163°
2026-04-22 07:03 34.71773 32.48405 44 ft 9 kts 200°
2026-04-22 07:03 34.71670 32.48358 41 ft 21 kts 201°
2026-04-22 07:03 34.71513 32.48289 37 ft 22 kts 199°
2026-04-22 07:03 34.71420 32.48267 34 ft 10 kts 156°
2026-04-22 07:04 34.71393 32.48327 33 ft 9 kts 110°
2026-04-22 07:04 34.71366 32.48414 32 ft 12 kts 111°
2026-04-22 07:04 34.71337 32.48505 31 ft 7 kts 111°
2026-04-22 07:04 34.71313 32.48535 30 ft 5 kts 159°
2026-04-22 07:05 34.71278 32.48554 30 ft 5 kts 156°
2026-04-22 07:05 34.71263 32.48563 30 ft 0 kts 155°
2026-04-22 07:05 34.71262 32.48563 30 ft 0 kts 155°